| time (UTC) | temp C | wind direction | speed KPH | gust KPH | rain 1hr cm | rain 24hr cm | rain mn cm | humidity % | barometer mb |
| 20260504185050 | 20 | 33 | 4.8 | 17.7 | 0.00 | 0.00 | 0.00 | 39 | 1006.6 |
| 20260504184549 | 20 | 232 | 3.2 | 17.7 | 0.00 | 0.00 | 0.00 | 41 | 1006.8 |
| 20260504184048 | 20 | 118 | 4.8 | 17.7 | 0.00 | 0.00 | 0.00 | 41 | 1006.8 |
| 20260504183548 | 20 | 301 | 3.2 | 17.7 | 0.00 | 0.00 | 0.00 | 39 | 1006.8 |
| 20260504183046 | 19 | 300 | 4.8 | 14.5 | 0.00 | 0.00 | 0.00 | 39 | 1006.9 |
| 20260504182546 | 19 | 267 | 3.2 | 14.5 | 0.00 | 0.00 | 0.00 | 39 | 1006.9 |
| 20260504182046 | 19 | 336 | 4.8 | 14.5 | 0.00 | 0.00 | 0.00 | 42 | 1006.9 |
| 20260504181546 | 19 | 276 | 3.2 | 9.7 | 0.00 | 0.00 | 0.00 | 40 | 1006.9 |
| 20260504181046 | 19 | 93 | 4.8 | 12.9 | 0.00 | 0.00 | 0.00 | 39 | 1007.1 |
| 20260504180545 | 19 | 209 | 1.6 | 16.1 | 0.00 | 0.00 | 0.00 | 38 | 1006.9 |
| 20260504180045 | 20 | 227 | 8.0 | 16.1 | 0.00 | 0.00 | 0.00 | 39 | 1007.0 |
| 20260504175545 | 20 | 237 | 4.8 | 20.9 | 0.00 | 0.00 | 0.00 | 39 | 1007.0 |
| 20260504175045 | 20 | 152 | 4.8 | 20.9 | 0.00 | 0.00 | 0.00 | 39 | 1007.0 |
| 20260504174546 | 20 | 347 | 3.2 | 12.9 | 0.00 | 0.00 | 0.00 | 37 | 1007.0 |
| 20260504174044 | 20 | 164 | 3.2 | 12.9 | 0.00 | 0.00 | 0.00 | 39 | 1007.1 |
| 20260504173542 | 20 | 144 | 4.8 | 12.9 | 0.00 | 0.00 | 0.00 | 39 | 1007.1 |
| 20260504173044 | 20 | 50 | 4.8 | 12.9 | 0.00 | 0.00 | 0.00 | 40 | 1007.2 |
| 20260504172540 | 19 | 228 | 3.2 | 14.5 | 0.00 | 0.00 | 0.00 | 41 | 1007.1 |
| 20260504172039 | 19 | 333 | 3.2 | 17.7 | 0.00 | 0.00 | 0.00 | 39 | 1007.1 |
| 20260504171539 | 18 | 132 | 8.0 | 22.5 | 0.00 | 0.00 | 0.00 | 39 | 1007.1 |
| 20260504171038 | 18 | 102 | 3.2 | 22.5 | 0.00 | 0.00 | 0.00 | 39 | 1007.1 |
| 20260504170538 | 19 | 289 | 4.8 | 12.9 | 0.00 | 0.00 | 0.00 | 40 | 1007.1 |
| 20260504151022 | 17 | 314 | 4.8 | 19.3 | 0.00 | 0.00 | 0.00 | 44 | 1008.3 |
| 20260504150520 | 17 | 85 | 4.8 | 14.5 | 0.00 | 0.00 | 0.00 | 45 | 1008.3 |
| 20260504141013 | 16 | 33 | 3.2 | 11.3 | 0.00 | 0.00 | 0.00 | 47 | 1008.9 |
| 20260504140512 | 16 | 244 | 3.2 | 6.4 | 0.00 | 0.00 | 0.00 | 47 | 1008.8 |
| 20260504130559 | 13 | 299 | 4.8 | 14.5 | 0.00 | 0.00 | 0.00 | 53 | 1009.7 |
| 20260504110525 | 6 | 272 | 0.0 | 3.2 | 0.00 | 0.00 | 0.00 | 77 | 1010.1 |
| 20260504100517 | 4 | 135 | 0.0 | 1.6 | 0.00 | 0.00 | 0.00 | 81 | 1009.8 |
| 20260504081512 | 5 | 254 | 0.0 | 4.8 | 0.00 | 0.00 | 0.00 | 81 | 1010.1 |
| 20260504081012 | 5 | 254 | 0.0 | 4.8 | 0.00 | 0.00 | 0.00 | 82 | 1009.9 |
| 20260504080512 | 5 | 65 | 0.0 | 1.6 | 0.00 | 0.00 | 0.00 | 82 | 1010.0 |
| 20260504060105 | 3 | 253 | 0.0 | 0.0 | 0.00 | 0.03 | 0.00 | 81 | 1010.0 |
| 20260504050556 | 3 | 218 | 0.0 | 1.6 | 0.00 | 0.03 | 0.00 | 78 | 1010.1 |
| 20260504045553 | 3 | 218 | 0.0 | 4.8 | 0.00 | 0.03 | 0.00 | 78 | 1010.1 |
| 20260504045052 | 2 | 218 | 0.0 | 4.8 | 0.00 | 0.03 | 0.00 | 78 | 1010.2 |
| 20260504044553 | 2 | 218 | 0.0 | 3.2 | 0.00 | 0.03 | 0.00 | 79 | 1010.2 |
| 20260504044051 | 2 | 218 | 0.0 | 3.2 | 0.00 | 0.03 | 0.00 | 79 | 1010.1 |
| 20260504043551 | 2 | 218 | 0.0 | 3.2 | 0.00 | 0.03 | 0.00 | 81 | 1010.2 |
| 20260504043055 | 2 | 213 | 0.0 | 0.0 | 0.00 | 0.03 | 0.00 | 79 | 1010.1 |
| 20260504042548 | 2 | 213 | 0.0 | 0.0 | 0.00 | 0.03 | 0.00 | 80 | 1010.3 |
| 20260504042047 | 2 | 213 | 0.0 | 0.0 | 0.00 | 0.03 | 0.00 | 81 | 1010.2 |
| 20260504041547 | 1 | 213 | 0.0 | 0.0 | 0.00 | 0.03 | 0.00 | 80 | 1010.2 |
| 20260504041046 | 1 | 213 | 0.0 | 0.0 | 0.00 | 0.03 | 0.00 | 81 | 1010.0 |
| 20260504040546 | 1 | 213 | 0.0 | 0.0 | 0.00 | 0.03 | 0.00 | 81 | 1010.0 |
| 20260504040047 | 1 | 213 | 0.0 | 0.0 | 0.00 | 0.03 | 0.00 | 79 | 1010.0 |
| 20260504035545 | 1 | 213 | 0.0 | 0.0 | 0.00 | 0.03 | 0.03 | 79 | 1009.9 |
| 20260504035045 | 1 | 213 | 0.0 | 0.0 | 0.00 | 0.03 | 0.03 | 78 | 1010.0 |
| 20260504034553 | 1 | 213 | 0.0 | 0.0 | 0.00 | 0.03 | 0.03 | 79 | 1009.9 |
| 20260504034048 | 1 | 213 | 0.0 | 0.0 | 0.00 | 0.03 | 0.03 | 79 | 1010.1 |
| 20260504033544 | 1 | 213 | 0.0 | 0.0 | 0.00 | 0.03 | 0.03 | 78 | 1010.0 |
| 20260504033044 | 1 | 213 | 0.0 | 0.0 | 0.00 | 0.03 | 0.03 | 79 | 1010.0 |
| 20260504032543 | 1 | 213 | 0.0 | 0.0 | 0.00 | 0.03 | 0.03 | 78 | 1009.9 |
| 20260504032044 | 1 | 213 | 0.0 | 0.0 | 0.00 | 0.03 | 0.03 | 79 | 1010.0 |
| 20260504031544 | 1 | 213 | 0.0 | 0.0 | 0.00 | 0.03 | 0.03 | 79 | 1009.9 |
| 20260504031042 | 1 | 213 | 0.0 | 0.0 | 0.00 | 0.03 | 0.03 | 78 | 1009.8 |
| 20260504030542 | 1 | 213 | 0.0 | 0.0 | 0.00 | 0.03 | 0.03 | 77 | 1009.8 |
| 20260504030042 | 1 | 213 | 0.0 | 0.0 | 0.00 | 0.03 | 0.03 | 77 | 1009.9 |
| 20260504025542 | 1 | 213 | 0.0 | 0.0 | 0.00 | 0.03 | 0.03 | 77 | 1009.9 |
| 20260504025042 | 2 | 213 | 0.0 | 0.0 | 0.00 | 0.03 | 0.03 | 77 | 1009.9 |
| 20260504024547 | 2 | 213 | 0.0 | 0.0 | 0.00 | 0.03 | 0.03 | 77 | 1009.8 |
| 20260504024041 | 2 | 213 | 0.0 | 0.0 | 0.00 | 0.03 | 0.03 | 76 | 1009.9 |
| 20260504023642 | 2 | 213 | 0.0 | 0.0 | 0.00 | 0.03 | 0.03 | 76 | 1009.9 |
| 20260504023041 | 2 | 213 | 0.0 | 0.0 | 0.00 | 0.03 | 0.03 | 75 | 1009.8 |
| 20260504022541 | 1 | 213 | 0.0 | 0.0 | 0.00 | 0.03 | 0.03 | 76 | 1009.8 |
| 20260504022041 | 2 | 213 | 0.0 | 0.0 | 0.00 | 0.03 | 0.03 | 77 | 1009.9 |
| 20260504021541 | 2 | 213 | 0.0 | 0.0 | 0.00 | 0.03 | 0.03 | 77 | 1009.9 |
| 20260504021040 | 2 | 213 | 0.0 | 0.0 | 0.00 | 0.03 | 0.03 | 78 | 1009.9 |
| 20260504020540 | 2 | 213 | 0.0 | 0.0 | 0.00 | 0.03 | 0.03 | 78 | 1009.9 |
| 20260504020042 | 2 | 213 | 0.0 | 0.0 | 0.00 | 0.03 | 0.03 | 80 | 1009.8 |
| 20260504015540 | 2 | 213 | 0.0 | 0.0 | 0.00 | 0.03 | 0.03 | 81 | 1009.8 |
| 20260504015040 | 2 | 213 | 0.0 | 0.0 | 0.00 | 0.03 | 0.03 | 81 | 1009.7 |
| 20260504014541 | 2 | 213 | 0.0 | 0.0 | 0.00 | 0.03 | 0.03 | 80 | 1009.7 |
| 20260504014039 | 2 | 213 | 0.0 | 0.0 | 0.00 | 0.03 | 0.03 | 81 | 1009.6 |
| 20260504013539 | 2 | 213 | 0.0 | 0.0 | 0.00 | 0.03 | 0.03 | 82 | 1009.6 |
| 20260504013054 | 2 | 213 | 0.0 | 0.0 | 0.00 | 0.03 | 0.03 | 81 | 1009.6 |
| 20260504012539 | 2 | 213 | 0.0 | 0.0 | 0.00 | 0.03 | 0.03 | 81 | 1009.6 |
| 20260504012039 | 2 | 213 | 0.0 | 0.0 | 0.00 | 0.03 | 0.03 | 81 | 1009.5 |
| 20260504011538 | 2 | 213 | 0.0 | 0.0 | 0.00 | 0.03 | 0.03 | 80 | 1009.2 |
| 20260504011039 | 3 | 213 | 0.0 | 0.0 | 0.00 | 0.03 | 0.03 | 78 | 1009.3 |
| 20260504010538 | 3 | 213 | 0.0 | 0.0 | 0.00 | 0.03 | 0.03 | 78 | 1009.2 |
| 20260504010041 | 3 | 213 | 0.0 | 0.0 | 0.00 | 0.03 | 0.03 | 78 | 1009.2 |
| 20260504005541 | 3 | 213 | 0.0 | 0.0 | 0.00 | 0.03 | 0.03 | 75 | 1009.1 |
| 20260504005038 | 3 | 213 | 0.0 | 0.0 | 0.00 | 0.03 | 0.03 | 75 | 1009.0 |
| 20260504004538 | 3 | 213 | 0.0 | 0.0 | 0.00 | 0.03 | 0.03 | 74 | 1009.0 |
| 20260504004038 | 4 | 213 | 0.0 | 0.0 | 0.00 | 0.03 | 0.03 | 74 | 1008.9 |
| 20260504003537 | 4 | 213 | 0.0 | 1.6 | 0.00 | 0.03 | 0.03 | 72 | 1008.9 |
| 20260504003037 | 4 | 213 | 0.0 | 3.2 | 0.00 | 0.03 | 0.03 | 70 | 1008.8 |
| 20260504002537 | 5 | 213 | 0.0 | 3.2 | 0.00 | 0.03 | 0.03 | 69 | 1008.8 |
| 20260504002037 | 5 | 213 | 0.0 | 3.2 | 0.00 | 0.03 | 0.03 | 67 | 1008.7 |
| 20260504001540 | 5 | 213 | 0.0 | 3.2 | 0.00 | 0.03 | 0.03 | 67 | 1008.7 |
| 20260504001039 | 5 | 213 | 0.0 | 3.2 | 0.00 | 0.03 | 0.03 | 66 | 1008.6 |
| 20260504000536 | 5 | 213 | 0.0 | 0.0 | 0.00 | 0.03 | 0.03 | 66 | 1008.5 |
| 20260504000037 | 6 | 213 | 0.0 | 3.2 | 0.00 | 0.03 | 0.03 | 66 | 1008.5 |
| 20260503235536 | 6 | 213 | 0.0 | 3.2 | 0.00 | 0.03 | 0.03 | 65 | 1008.4 |
| 20260503235038 | 6 | 328 | 0.0 | 4.8 | 0.00 | 0.03 | 0.03 | 64 | 1008.4 |
| 20260503234536 | 6 | 328 | 0.0 | 4.8 | 0.00 | 0.03 | 0.03 | 62 | 1008.3 |
| 20260503234036 | 6 | 104 | 0.0 | 3.2 | 0.00 | 0.03 | 0.03 | 62 | 1008.3 |
| 20260503233537 | 6 | 70 | 0.0 | 3.2 | 0.00 | 0.03 | 0.03 | 60 | 1008.3 |
| 20260503233036 | 7 | 70 | 0.0 | 3.2 | 0.00 | 0.03 | 0.03 | 61 | 1008.2 |
| 20260503232536 | 7 | 70 | 0.0 | 4.8 | 0.00 | 0.03 | 0.03 | 59 | 1008.1 |
| 20260503232035 | 7 | 70 | 0.0 | 9.7 | 0.00 | 0.03 | 0.03 | 58 | 1008.1 |
| 20260503231535 | 7 | 230 | 1.6 | 11.3 | 0.00 | 0.03 | 0.03 | 55 | 1008.1 |
| 20260503231035 | 7 | 278 | 0.0 | 11.3 | 0.00 | 0.03 | 0.03 | 60 | 1008.1 |
| 20260503230534 | 7 | 178 | 0.0 | 9.7 | 0.00 | 0.03 | 0.03 | 59 | 1008.0 |
| 20260503230041 | 7 | 274 | 3.2 | 9.7 | 0.00 | 0.03 | 0.03 | 55 | 1007.9 |
| 20260503225534 | 7 | 135 | 1.6 | 4.8 | 0.00 | 0.13 | 0.03 | 57 | 1007.9 |
| 20260503225034 | 7 | 205 | 1.6 | 6.4 | 0.00 | 0.13 | 0.03 | 57 | 1007.9 |
| 20260503224534 | 7 | 347 | 0.0 | 6.4 | 0.00 | 0.13 | 0.03 | 55 | 1007.9 |
| 20260503224035 | 8 | 349 | 1.6 | 6.4 | 0.00 | 0.13 | 0.03 | 57 | 1007.9 |
| 20260503223535 | 8 | 307 | 1.6 | 6.4 | 0.00 | 0.13 | 0.03 | 53 | 1007.9 |
| 20260503223034 | 8 | 70 | 1.6 | 6.4 | 0.00 | 0.13 | 0.03 | 56 | 1007.9 |
| 20260503222534 | 8 | 112 | 1.6 | 9.7 | 0.00 | 0.13 | 0.03 | 56 | 1007.8 |
| 20260503222034 | 8 | 33 | 1.6 | 9.7 | 0.00 | 0.13 | 0.03 | 56 | 1007.8 |
| 20260503221533 | 8 | 355 | 1.6 | 9.7 | 0.00 | 0.13 | 0.03 | 55 | 1007.8 |
| 20260503221037 | 8 | 351 | 3.2 | 9.7 | 0.00 | 0.13 | 0.03 | 53 | 1007.7 |
| 20260503220534 | 8 | 62 | 3.2 | 8.0 | 0.00 | 0.13 | 0.03 | 52 | 1007.8 |
| 20260503220032 | 8 | 146 | 1.6 | 6.4 | 0.00 | 0.13 | 0.03 | 54 | 1007.8 |
| 20260503215534 | 8 | 331 | 0.0 | 8.0 | 0.00 | 0.23 | 0.03 | 55 | 1007.8 |
| 20260503215032 | 8 | 122 | 1.6 | 8.0 | 0.00 | 0.23 | 0.03 | 53 | 1007.7 |
| 20260503214539 | 8 | 52 | 1.6 | 14.5 | 0.00 | 0.23 | 0.03 | 53 | 1007.7 |
| 20260503214032 | 8 | 308 | 4.8 | 14.5 | 0.00 | 0.23 | 0.03 | 51 | 1007.6 |
| 20260503213532 | 8 | 62 | 3.2 | 9.7 | 0.00 | 0.23 | 0.03 | 52 | 1007.6 |
| 20260503213032 | 8 | 69 | 3.2 | 12.9 | 0.00 | 0.23 | 0.03 | 53 | 1007.6 |
| 20260503212531 | 8 | 337 | 3.2 | 12.9 | 0.00 | 0.23 | 0.03 | 52 | 1007.5 |
| 20260503212030 | 8 | 301 | 3.2 | 14.5 | 0.00 | 0.23 | 0.03 | 53 | 1007.3 |
| 20260503211531 | 8 | 106 | 1.6 | 14.5 | 0.00 | 0.23 | 0.03 | 53 | 1007.2 |
| 20260503211030 | 8 | 283 | 3.2 | 14.5 | 0.00 | 0.23 | 0.03 | 52 | 1007.2 |
| 20260503210530 | 8 | 41 | 3.2 | 16.1 | 0.00 | 0.23 | 0.03 | 55 | 1007.2 |
| 20260503210030 | 8 | 320 | 1.6 | 16.1 | 0.00 | 0.23 | 0.03 | 52 | 1007.1 |
| 20260503205530 | 8 | 93 | 3.2 | 12.9 | 0.00 | 0.38 | 0.03 | 52 | 1007.1 |
| 20260503205029 | 8 | 178 | 3.2 | 14.5 | 0.00 | 0.38 | 0.03 | 54 | 1007.1 |
| 20260503204530 | 8 | 89 | 3.2 | 16.1 | 0.00 | 0.38 | 0.03 | 51 | 1007.1 |
| 20260503204029 | 8 | 75 | 4.8 | 16.1 | 0.00 | 0.38 | 0.03 | 51 | 1006.9 |
| 20260503203533 | 8 | 322 | 1.6 | 14.5 | 0.00 | 0.38 | 0.03 | 52 | 1007.0 |
| 20260503203035 | 8 | 162 | 4.8 | 14.5 | 0.00 | 0.38 | 0.03 | 53 | 1006.9 |
| 20260503202529 | 8 | 106 | 3.2 | 9.7 | 0.00 | 0.38 | 0.03 | 52 | 1007.0 |
| 20260503202029 | 8 | 7 | 3.2 | 9.7 | 0.00 | 0.38 | 0.03 | 52 | 1007.0 |
| 20260503201529 | 8 | 317 | 3.2 | 9.7 | 0.00 | 0.38 | 0.03 | 52 | 1007.0 |
| 20260503201027 | 8 | 144 | 3.2 | 19.3 | 0.00 | 0.38 | 0.03 | 53 | 1007.0 |
| 20260503200527 | 8 | 287 | 4.8 | 19.3 | 0.00 | 0.38 | 0.03 | 53 | 1006.9 |
| 20260503200029 | 8 | 4 | 3.2 | 16.1 | 0.00 | 0.38 | 0.03 | 53 | 1006.9 |
| 20260503195527 | 8 | 296 | 4.8 | 16.1 | 0.00 | 0.38 | 0.03 | 52 | 1006.9 |
| 20260503195027 | 8 | 215 | 1.6 | 9.7 | 0.00 | 0.38 | 0.03 | 52 | 1007.0 |
| 20260503194527 | 8 | 93 | 3.2 | 11.3 | 0.00 | 0.38 | 0.03 | 54 | 1006.9 |
| 20260503194027 | 8 | 163 | 3.2 | 11.3 | 0.00 | 0.38 | 0.03 | 54 | 1006.9 |
| 20260503193527 | 8 | 268 | 3.2 | 19.3 | 0.00 | 0.38 | 0.03 | 53 | 1006.8 |
| 20260503193041 | 9 | 212 | 4.8 | 19.3 | 0.00 | 0.38 | 0.03 | 52 | 1006.6 |
| 20260503192525 | 9 | 153 | 3.2 | 12.9 | 0.00 | 0.38 | 0.03 | 53 | 1006.9 |
| 20260503192030 | 8 | 37 | 0.0 | 12.9 | 0.00 | 0.38 | 0.03 | 50 | 1006.7 |
| 20260503191557 | 8 | 159 | 3.2 | 17.7 | 0.00 | 0.38 | 0.03 | 49 | 1006.7 |
| 20260503191029 | 9 | 41 | 4.8 | 17.7 | 0.00 | 0.38 | 0.03 | 49 | 1006.6 |
| 20260503190530 | 9 | 280 | 3.2 | 12.9 | 0.00 | 0.38 | 0.03 | 52 | 1006.8 |
| 20260503190035 | 8 | 23 | 1.6 | 12.9 | 0.00 | 0.38 | 0.03 | 51 | 1006.8 |
| 20260503185530 | 8 | 8 | 4.8 | 16.1 | 0.00 | 0.38 | 0.03 | 51 | 1006.8 |